Wind_Speed
10 9 9 8 8 8 7 8 8 8 8 8 8 7 7 7 7 8 9 9 9 9 9 9 8 9 9 9 9 10 10 10 10 10 10 11 12 12 13 14 14 15 15
10 10 9 9 9 9 9 9 8 8 9 9 9 8 8 8 8 9 9 9 9 9 9 9 9 9 9 9 10 10 10 11 11 11 11 12 13 13 14 15 15 15 16
11 11 10 10 10 10 10 10 10 9 9 10 10 10 9 9 9 10 10 10 10 10 10 10 9 10 10 10 10 10 11 11 12 12 12 13 13 14 15 15 16 17 18
12 12 12 12 12 12 11 11 11 11 10 10 11 11 10 10 10 11 11 11 11 11 11 11 11 11 11 11 11 11 11 12 12 13 13 14 14 15 15 16 17 17 18
14 14 14 14 13 13 13 13 13 13 12 12 12 11 11 12 12 12 11 11 12 12 12 12 12 12 12 12 13 13 13 13 13 13 14 15 15 16 16 17 18 19 20
15 15 15 15 14 14 14 14 14 14 13 13 13 12 13 13 13 13 12 12 12 12 12 13 13 14 14 14 13 13 14 14 14 15 15 16 16 17 18 19 20 21 21
16 16 15 15 14 14 15 15 15 14 14 14 15 15 15 15 15 14 14 14 14 13 14 14 15 15 15 15 15 14 14 15 16 16 17 17 18 18 19 21 21 22 23
17 16 16 16 16 15 16 16 15 15 15 15 16 16 16 15 15 15 15 15 15 15 15 16 16 16 15 15 16 15 16 16 17 18 19 19 20 20 21 22 23 24 25
18 17 17 17 17 17 17 17 17 17 17 17 17 17 17 17 17 17 17 17 17 17 17 17 17 17 17 17 17 17 18 18 19 19 19 20 21 22 23 24 24 25 26
20 19 19 19 19 18 18 19 19 19 19 19 18 18 18 18 18 18 18 18 18 18 18 17 17 18 18 18 19 19 19 20 20 20 21 22 22 24 24 25 26 27 28
21 20 20 20 20 20 20 20 20 21 20 20 19 19 19 19 19 20 20 20 20 19 19 19 19 19 20 20 21 21 21 21 21 22 23 23 24 25 26 27 28 29 29
22 23 22 21 21 21 21 20 20 21 21 21 21 21 21 21 20 21 21 21 21 21 21 21 21 21 21 22 22 22 23 23 23 24 25 26 26 27 28 29 29 30 31
24 24 24 23 22 22 22 22 22 22 22 22 23 23 22 22 22 22 22 22 22 22 22 23 23 23 23 24 24 24 24 25 25 26 27 28 28 29 30 30 31 31 32
25 25 24 24 24 23 23 23 23 23 23 23 24 24 24 24 24 24 24 24 24 24 24 24 25 25 25 25 26 26 27 28 28 28 29 30 30 30 31 32 32 32 33
26 26 25 25 25 25 25 25 25 25 25 25 25 26 26 26 26 26 26 26 26 26 26 26 26 27 27 27 28 29 29 29 30 31 31 32 32 32 33 33 33 33 33
27 27 27 26 26 26 27 27 27 27 27 27 27 28 28 28 28 28 28 28 28 28 28 28 28 29 29 29 30 31 31 32 32 33 33 33 33 34 34 34 35 35 35
28 28 28 28 28 28 28 29 29 29 29 30 30 30 30 30 30 30 30 30 30 30 30 31 31 31 31 32 32 32 33 34 34 35 35 35 35 35 35 35 35 36 36
28 29 29 29 29 30 30 30 30 30 31 31 32 31 32 32 32 32 32 32 31 32 32 32 32 33 33 34 34 34 35 36 36 37 37 36 36 36 36 36 37 37 37
29 30 30 30 31 31 31 31 31 32 32 32 32 33 33 33 33 33 33 33 33 33 33 34 34 34 35 35 35 36 37 37 37 38 37 37 38 38 38 38 38 39 39
30 30 31 31 32 33 33 33 33 33 33 33 33 34 34 34 34 34 34 35 34 34 35 35 35 36 36 37 38 39 39 39 39 38 38 38 38 39 38 39 39 39 40
30 31 31 32 33 33 34 34 34 34 35 35 35 35 35 35 35 36 36 37 37 37 37 37 37 38 39 39 40 41 41 40 40 39 39 39 39 39 39 39 39 39 40
31 31 32 33 33 34 34 34 34 34 35 36 36 36 36 36 37 38 38 38 39 39 39 39 40 40 41 41 42 42 42 42 41 40 40 40 40 40 40 40 40 40 41
32 33 33 33 34 35 35 34 35 35 35 36 36 36 37 37 38 39 39 39 40 40 40 41 41 42 42 43 43 43 43 42 42 42 42 41 41 41 41 41 42 42 42
33 33 33 34 34 35 35 35 35 35 36 36 36 36 37 38 38 39 39 40 40 40 40 41 42 43 44 43 43 42 42 42 42 41 41 41 42 42 42 42 42 42 41
33 33 33 34 35 35 35 35 35 36 36 36 37 37 38 38 38 39 39 40 40 40 41 42 43 43 43 43 42 42 42 42 42 41 41 41 42 42 43 43 42 41 40
33 34 34 34 35 35 35 35 36 36 37 37 37 37 38 39 39 39 39 40 40 41 42 42 42 43 42 42 43 43 42 42 42 42 42 42 42 42 41 41 40 40 39
Wind_Direction
291 287 287 289 291 292 294 296 298 301 301 303 304 303 307 307 305 308 308 306 308 309 303 299 297 300 298 299 298 299 301 302 294 291 296 299 296 295 297 299 298 298 298
288 285 285 285 288 288 289 292 296 297 296 300 304 302 303 307 308 311 310 307 306 309 308 303 301 298 298 297 298 300 300 302 300 296 296 297 297 297 299 300 302 303 303
285 285 284 282 283 284 285 287 291 293 294 296 302 305 303 302 305 309 308 308 308 308 309 307 301 297 294 297 299 299 300 300 300 300 298 297 295 297 300 301 301 303 303
283 280 281 282 282 282 282 282 285 289 293 296 297 301 300 297 299 302 304 304 304 305 304 304 304 301 296 296 297 296 298 301 301 299 298 297 296 298 300 302 303 303 305
281 278 279 279 279 281 282 280 281 284 290 293 294 294 295 296 295 296 298 300 299 300 300 300 302 301 297 294 294 294 295 297 300 301 300 299 300 300 301 302 303 303 304
281 280 278 277 276 277 280 281 281 282 285 288 291 292 293 295 295 294 293 293 296 297 297 299 300 299 298 296 296 294 293 296 297 299 300 300 300 300 301 301 303 303 303
278 279 278 275 274 274 275 278 278 280 283 286 287 289 289 290 293 294 292 290 290 291 293 295 297 297 295 295 295 296 297 297 297 298 298 298 299 300 301 302 302 303 303
277 277 276 274 273 273 274 274 273 277 281 284 284 286 286 288 289 290 291 290 289 290 291 292 292 293 293 294 294 294 296 297 297 299 299 298 297 298 300 301 303 304 305
278 277 276 276 275 276 277 276 275 276 279 281 283 285 285 286 287 287 287 288 288 288 289 291 291 291 291 292 293 293 293 294 295 297 299 301 302 302 303 303 303 305 305
277 276 276 276 276 276 276 276 275 276 277 277 279 282 283 284 285 286 286 286 287 287 288 289 290 289 291 292 293 293 293 293 293 293 295 297 299 301 303 303 303 303 304
273 274 276 276 275 275 275 275 274 274 274 274 276 278 280 282 283 284 284 284 285 284 285 286 287 288 290 291 293 294 293 293 294 294 294 296 297 299 300 301 302 303 304
271 273 274 275 276 277 277 277 276 275 274 274 275 277 279 281 283 284 284 284 284 284 285 286 288 289 290 291 293 294 294 294 295 296 296 296 297 298 299 300 301 302 303
270 272 273 273 274 275 276 276 276 276 275 275 275 276 278 280 281 282 283 283 283 283 284 285 286 288 289 290 291 293 294 296 296 297 298 298 298 299 300 300 300 302 302
270 270 271 272 273 274 275 276 277 278 277 276 276 276 277 279 281 283 282 282 282 283 283 283 284 286 288 289 290 291 291 293 295 296 297 298 298 299 299 300 301 301 302
269 269 269 271 273 274 275 276 277 278 278 278 277 277 277 279 281 282 282 281 280 281 281 282 283 285 287 288 290 291 292 293 294 295 295 296 297 298 298 299 300 300 301
269 268 268 270 273 276 275 275 276 278 278 277 277 278 278 279 280 280 280 280 280 280 281 282 283 284 286 287 289 290 291 291 292 294 295 295 296 297 297 298 298 299 299
268 269 269 270 273 276 277 276 277 278 279 279 279 279 279 279 279 278 279 280 280 280 281 282 283 284 285 287 288 289 290 291 292 293 294 295 295 296 296 297 297 298 299
269 269 270 272 274 276 277 277 278 279 279 279 279 278 278 277 277 277 277 278 279 280 281 282 282 283 284 286 288 289 290 291 291 292 293 293 294 295 295 296 296 297 298
270 270 271 272 274 276 277 278 279 279 279 278 277 277 278 278 277 277 277 278 279 280 281 281 282 283 284 285 287 289 290 291 291 291 292 292 292 293 294 295 296 296 296
270 271 272 273 274 275 276 278 278 279 279 278 277 277 278 278 278 277 277 278 278 279 280 281 282 284 285 285 286 288 290 291 291 291 291 292 292 292 293 294 294 295 296
272 273 274 275 275 275 276 277 277 277 278 279 278 278 278 278 278 278 278 277 277 278 279 281 282 283 285 286 287 288 289 290 290 290 290 291 292 293 292 293 294 295 296
272 274 276 276 276 277 276 276 276 278 278 278 277 277 278 279 279 279 279 278 277 278 278 280 281 283 284 285 287 288 288 288 288 289 289 290 291 292 292 293 293 294 295
272 274 275 277 278 278 277 277 277 278 279 278 278 278 279 279 279 279 280 279 278 279 279 280 281 281 283 284 286 287 288 288 288 288 289 289 290 291 292 293 294 294 294
274 275 276 278 278 278 278 278 277 277 278 279 280 280 280 280 280 280 280 280 279 280 280 281 282 282 282 284 285 286 286 287 288 289 288 289 289 290 291 293 294 294 294
273 275 276 278 278 278 277 277 277 278 279 280 281 281 281 281 281 282 282 282 281 282 282 282 283 284 284 284 284 284 285 286 287 287 288 289 290 290 291 292 292 292 292
275 277 278 278 278 278 279 279 279 279 280 282 282 282 282 282 282 283 283 282 282 283 284 284 284 285 285 285 284 284 284 285 286 287 288 288 290 291 291 290 290 291 291
Height
5832 5831 5831 5831 5831 5831 5831 5830 5830 5830 5829 5829 5828 5828 5828 5827 5826 5826 5825 5825 5824 5823 5823 5822 5821 5821 5820 5820 5819 5819 5819 5818 5818 5818 5817 5817 5816 5816 5815 5814 5813 5812 5810
5829 5829 5829 5829 5829 5829 5829 5829 5828 5828 5828 5827 5827 5826 5826 5825 5825 5824 5823 5823 5822 5822 5821 5820 5820 5819 5818 5818 5817 5816 5816 5816 5815 5815 5815 5814 5813 5812 5812 5811 5809 5808 5806
5827 5827 5826 5826 5827 5827 5827 5827 5826 5826 5826 5825 5825 5824 5824 5823 5823 5822 5822 5821 5820 5820 5819 5818 5817 5817 5816 5815 5815 5814 5814 5813 5813 5812 5811 5811 5810 5809 5808 5807 5806 5804 5802
5824 5824 5824 5824 5824 5824 5824 5824 5824 5824 5823 5823 5823 5822 5822 5821 5821 5820 5819 5819 5818 5817 5817 5816 5815 5814 5814 5813 5812 5812 5811 5810 5809 5809 5808 5807 5806 5805 5804 5803 5801 5800 5798
5821 5821 5821 5821 5821 5821 5821 5821 5821 5821 5821 5821 5820 5820 5819 5818 5818 5817 5817 5816 5815 5815 5814 5813 5812 5812 5811 5810 5810 5809 5808 5807 5806 5806 5805 5804 5803 5801 5800 5799 5797 5795 5793
5817 5817 5817 5817 5818 5818 5818 5818 5818 5818 5818 5817 5817 5817 5816 5815 5815 5814 5814 5813 5812 5812 5811 5810 5809 5808 5808 5807 5806 5805 5805 5804 5803 5802 5801 5800 5799 5797 5796 5794 5792 5790 5788
5813 5813 5813 5813 5813 5814 5814 5814 5814 5814 5814 5814 5813 5813 5812 5812 5811 5810 5810 5809 5809 5808 5808 5807 5806 5805 5804 5803 5802 5802 5801 5800 5799 5798 5797 5796 5794 5793 5791 5789 5787 5785 5783
5809 5809 5809 5809 5809 5809 5809 5809 5810 5810 5810 5810 5809 5809 5809 5808 5807 5807 5806 5806 5805 5804 5804 5803 5802 5801 5800 5799 5798 5798 5797 5796 5795 5793 5792 5790 5789 5787 5785 5783 5781 5779 5776
5804 5804 5804 5804 5804 5804 5805 5805 5805 5805 5805 5805 5805 5804 5804 5804 5803 5803 5802 5801 5801 5800 5799 5798 5797 5797 5796 5795 5794 5793 5792 5791 5789 5788 5786 5785 5783 5781 5779 5777 5775 5772 5770
5798 5798 5799 5799 5799 5799 5799 5799 5800 5800 5800 5800 5800 5800 5800 5799 5799 5798 5797 5797 5796 5795 5794 5794 5793 5792 5791 5790 5789 5788 5787 5785 5784 5782 5781 5779 5777 5775 5773 5770 5768 5765 5762
5792 5793 5793 5793 5793 5794 5794 5794 5794 5794 5794 5795 5795 5795 5794 5794 5793 5793 5792 5791 5791 5790 5789 5789 5788 5787 5786 5785 5783 5782 5781 5779 5778 5776 5775 5773 5771 5768 5766 5763 5760 5758 5754
5786 5787 5787 5787 5787 5787 5788 5788 5788 5788 5788 5788 5789 5788 5788 5788 5788 5787 5786 5785 5785 5784 5784 5783 5782 5781 5780 5779 5777 5776 5774 5773 5771 5770 5768 5766 5763 5761 5759 5756 5752 5749 5746
5779 5780 5780 5780 5781 5781 5781 5781 5782 5781 5782 5782 5782 5782 5782 5781 5781 5781 5780 5779 5778 5778 5777 5777 5776 5775 5773 5772 5771 5769 5768 5766 5764 5762 5760 5758 5756 5753 5750 5747 5744 5741 5737
5772 5772 5773 5773 5774 5774 5774 5775 5775 5775 5775 5775 5775 5775 5775 5775 5774 5774 5773 5772 5772 5771 5770 5770 5769 5768 5766 5765 5763 5762 5760 5759 5757 5755 5752 5750 5747 5744 5742 5738 5735 5732 5729
5765 5765 5766 5766 5767 5767 5767 5767 5767 5767 5767 5767 5767 5767 5767 5767 5767 5766 5765 5765 5764 5764 5763 5762 5761 5760 5759 5757 5756 5754 5752 5750 5748 5746 5743 5741 5738 5735 5732 5729 5726 5723 5719
5757 5757 5758 5759 5759 5759 5760 5760 5759 5759 5759 5759 5759 5759 5759 5759 5758 5758 5757 5756 5756 5755 5754 5754 5753 5752 5750 5749 5747 5745 5743 5741 5739 5737 5734 5731 5728 5725 5722 5719 5716 5712 5709
5748 5749 5750 5750 5751 5751 5751 5751 5751 5751 5751 5750 5750 5750 5749 5749 5748 5748 5747 5747 5746 5746 5745 5745 5744 5742 5741 5739 5738 5736 5734 5731 5729 5726 5724 5721 5718 5715 5712 5709 5705 5702 5698
5740 5740 5741 5742 5742 5742 5742 5742 5742 5742 5742 5741 5740 5740 5739 5739 5738 5738 5737 5737 5737 5736 5735 5735 5733 5732 5731 5729 5727 5725 5723 5720 5718 5716 5713 5710 5707 5704 5701 5698 5694 5691 5687
5731 5731 5732 5733 5733 5733 5733 5732 5732 5732 5731 5731 5730 5729 5729 5728 5728 5727 5727 5727 5726 5726 5725 5724 5723 5721 5720 5718 5716 5714 5712 5709 5707 5704 5701 5699 5696 5693 5689 5686 5683 5679 5676
5721 5722 5723 5723 5723 5723 5722 5722 5722 5721 5720 5720 5719 5719 5718 5717 5717 5716 5716 5715 5715 5715 5714 5713 5711 5710 5708 5706 5704 5702 5700 5698 5695 5692 5690 5687 5684 5680 5677 5674 5671 5667 5663
5712 5713 5713 5712 5712 5712 5712 5711 5710 5710 5710 5709 5708 5707 5706 5706 5705 5705 5704 5704 5703 5703 5702 5701 5699 5698 5696 5694 5692 5690 5688 5685 5682 5680 5677 5674 5671 5668 5665 5661 5658 5654 5651
5703 5703 5702 5702 5702 5701 5701 5700 5699 5699 5698 5698 5697 5696 5695 5694 5694 5693 5692 5691 5691 5690 5689 5688 5687 5685 5684 5681 5679 5677 5674 5672 5669 5667 5664 5661 5658 5655 5652 5649 5645 5642 5638
5693 5693 5692 5692 5691 5690 5690 5689 5689 5688 5687 5686 5685 5684 5683 5683 5682 5680 5679 5678 5677 5676 5675 5674 5673 5672 5670 5668 5665 5663 5660 5658 5656 5653 5651 5648 5645 5642 5639 5635 5632 5628 5625
5682 5682 5682 5681 5680 5680 5679 5679 5678 5677 5676 5675 5674 5673 5672 5671 5669 5668 5667 5665 5664 5663 5662 5660 5659 5657 5655 5653 5651 5649 5646 5644 5641 5639 5636 5634 5631 5628 5625 5622 5618 5615 5611
5672 5672 5671 5670 5670 5669 5668 5667 5667 5666 5665 5664 5663 5661 5660 5659 5657 5655 5654 5653 5651 5650 5648 5647 5645 5643 5641 5639 5636 5634 5632 5630 5627 5625 5622 5620 5617 5614 5611 5608 5604 5601 5598
5661 5661 5660 5659 5658 5657 5657 5656 5655 5654 5653 5652 5651 5649 5648 5646 5645 5643 5641 5640 5638 5636 5635 5633 5631 5628 5626 5624 5622 5620 5618 5615 5613 5610 5608 5605 5603 5600 5596 5593 5590 5588 5585